Airfield :
LOGIN :

Register | Disclaimer

   EN    FR    IT 

 










Legend :    VFR   Marginal VFR   IFR   Intensive IFR   Very Intensive IFR
Visi :
Ceiling :
>= 8 km
>= 3000ft
5 to 8 km
1000 to 3000 ft
1500m to 5 km
500 to 1000 ft
800 to 1500m
200 to 500 ft
< 800m
< 200 ft
Symbols :   Thunderstorms  Fog  Heavy snow  Heavy precipitations  Wind > 20 kt
SIGMETs :     Misc.  Thunderstorms  Icing  Turbulence  Mountain Waves  Volcanic Ashes







- Airport Elevation : 1411 ft
- IATA code : GVA


LSGG - Genève Cointrin

CURRENT METAR :
  • 181750Z 36003KT CAVOK 16/06 Q1016 NOSIG

EXPIRED METARs :
  • 181720Z 01004KT CAVOK 17/06 Q1016 NOSIG
  • 181650Z 36003KT CAVOK 18/08 Q1016 NOSIG
  • 181620Z 01002KT CAVOK 19/09 Q1016 NOSIG
  • 181550Z 03004KT CAVOK 20/09 Q1016 NOSIG
  • 181520Z 03006KT CAVOK 20/09 Q1016 NOSIG
  • 181450Z 05008KT CAVOK 20/09 Q1016 NOSIG

TAF TAF LSGG
Valid from the 18 at 18:00 until the 20 at 00:00 UTC


181725Z 1818/1924 03003KT CAVOK TX19/1915Z TN07/1906Z
PROB40
TEMPO 1900/1909 4800 BR SCT010
ATIS : +41 22 417 40 81
No reported NOTAMs for that airfield.



MET'MAP, your aeronautical weather chart ! - Copyright ORBIFLY December 2007 - Disclaimer

ORBIFLY MET'MAP TEAM :

Programming & Development : Alexandra Zaïnal
Concept & Development : Baudouin d'Aumeries
Co-Development & Prog : Marc-Olivier Méhu
Technical & hardware support : Manuel Goepfert

Contact : metmap@orbifly.com




SOURCES & CREDITS :

   NOAA